[[{"header":{"parameterUnit":"m.s-1","parameterCategory":1,"la1":30.2991,"la2":30.254,"lo1":-89.0895,"lo2":-89.0444,"dy":0.0017,"dx":0.0017,"nx":28,"ny":28,"refTime":"2023-10-02T03:00:00:Z","depth":0,"parameterNumber":2,"parameterNumberName":"U-component_of_WINDS"},"data":[0,0,0,0,0,0,0,0,0,0,0,0,0,0,0,0,0,0,0,0,0,0,0,0,0,0,0,0,0,0,0,0,0,0,0,0,0,0,0,0,0,0,0,0,0,0,0,0,0,0,0,0,0,0,0,0,0,0,-3.7406,-3.7407,0,-3.7559,-3.7561,-3.7562,-3.7484,-3.748,-3.7476,-3.7472,-3.7633,-3.7641,-3.7649,0,0,0,0,0,0,0,0,0,0,0,0,0,-3.7048,-3.7055,-3.7406,-3.7407,-3.7409,-3.7559,-3.7561,-3.7563,-3.7485,-3.748,-3.7475,-3.747,-3.763,-3.764,-3.7649,0,0,0,0,0,0,0,0,0,0,0,0,0,-3.7203,-3.7058,-3.7405,-3.7388,-3.7388,-3.7558,-3.7561,-3.7563,-3.7486,-3.748,-3.7474,-3.7468,-3.7627,-3.7639,-3.7651,-3.7847,0,0,-3.7688,-3.7693,0,0,0,0,0,0,0,0,-3.7194,-3.7216,-3.7389,-3.739,-3.739,-3.7496,-3.7494,-3.7659,-3.7487,-3.7449,-3.7472,-3.7465,-3.7593,-3.7607,-3.7649,-3.7855,-3.7861,-3.7689,-3.7696,-3.7701,-3.7705,0,0,0,0,0,0,0,-3.7184,-3.7209,-3.7466,-3.7392,-3.7392,-3.7374,-3.7389,-3.7525,-3.7553,-3.7452,-3.7447,-3.7466,-3.7592,-3.7638,-3.7652,-3.7864,-3.7688,-3.7699,-3.7707,-3.7711,-3.8239,-3.8246,0,0,0,0,0,0,-3.7173,-3.7201,-3.7461,-3.7471,-3.7275,-3.7386,-3.7402,-3.7468,-3.7551,-3.7558,-3.7471,-3.7461,-3.762,-3.7638,-3.7658,-3.7895,-3.7701,-3.7713,-3.7719,-3.8233,-3.8241,-3.8248,0,0,0,0,0,0,-3.7166,-3.7197,-3.7455,-3.7334,-3.7366,-3.7398,-3.7473,-3.7475,-3.752,-3.7565,-3.7571,-3.7512,-3.7616,-3.7641,-3.7801,-3.7899,-3.7718,-3.7729,-3.8225,-3.8235,-3.8244,-3.8369,0,0,0,0,0,0,-3.7156,-3.7195,-3.7269,-3.7337,-3.7373,-3.7595,-3.7479,-3.7482,-3.7541,-3.7531,-3.7606,-3.7613,-3.7613,-3.7783,-3.7813,-3.7912,-3.7738,-3.8216,-3.8229,-3.8241,-3.8356,-3.8382,-3.8404,0,0,0,0,0,-3.7144,-3.7299,-3.7274,-3.7306,-3.7466,-3.7601,-3.7621,-3.7618,-3.7549,-3.7625,-3.7654,-3.761,-3.7883,-3.78,-3.7833,-3.7938,-3.821,-3.8225,-3.824,-3.8345,-3.8377,-3.8403,0,0,0,0,0,0,-3.7244,-3.7307,-3.728,-3.7462,-3.7526,-3.7587,-3.7682,-3.7651,-3.7737,-3.7724,-3.7717,-3.7735,-3.7901,-3.7935,-3.7841,-3.8132,-3.8036,-3.8058,-3.8105,-3.8135,-3.8158,-3.8148,-3.7748,0,0,0,0,0,-3.7287,-3.739,-3.744,-3.7596,-3.7629,-3.765,-3.7709,-3.77,-3.7768,-3.7795,-3.7835,-3.7903,-3.8004,-3.8071,-3.8166,-3.836,-3.8376,-3.8448,-3.8472,-3.8491,-3.8512,-3.8618,-3.8651,-3.8298,-3.8298,-3.8298,0,0,-3.7377,-3.7425,-3.749,-3.7617,-3.7666,-3.7774,-3.7674,-3.7792,-3.7873,-3.7813,-3.7967,-3.7999,-3.8074,-3.8252,-3.8332,-3.8285,-3.8612,-3.8511,-3.8526,-3.8536,-3.8637,-3.8671,-3.87,-3.8308,-3.8307,-3.8305,0,0,-3.7598,-3.7643,-3.7778,-3.7829,-3.7904,-3.7917,-3.7949,-3.8015,-3.8034,-3.8188,-3.8145,-3.8241,-3.8415,-3.8471,-3.8522,-3.8763,-3.8727,-3.8794,-3.892,-3.9024,-3.9052,-3.9076,-3.9164,-3.9196,-3.8813,-3.8814,-3.8814,0,-3.7701,-3.7861,-3.7852,-3.7974,-3.8031,-3.798,-3.8118,-3.8168,-3.8271,-3.8312,-3.8257,-3.8475,-3.8522,-3.8713,-3.8771,-3.8814,-3.8852,-3.8786,-3.9048,-3.9073,-3.9096,-3.918,-3.9213,-3.8822,-3.8821,-3.882,-3.8819,0,-3.7986,-3.8098,-3.8198,-3.8297,-3.8366,-3.8495,-3.8506,-3.8577,-3.8562,-3.8581,-3.8739,-3.8793,-3.8899,-3.8943,-3.893,-3.9133,-3.9101,-3.9048,-3.8951,-3.9138,-3.9216,-3.9248,-3.8833,-3.883,-3.8828,-3.8826,0,0,-3.8276,-3.8367,-3.8405,-3.845,-3.8528,-3.8615,-3.8742,-3.8844,-3.8906,-3.8978,-3.9086,-3.9234,-3.9185,-3.9243,-3.9235,-3.9326,-3.9516,-3.9262,-3.9263,-3.9309,-3.9745,-3.9786,-3.9824,-3.9491,-3.9497,-3.9502,-3.9739,0,-3.8503,-3.8725,-3.8719,-3.8926,-3.903,-3.8982,-3.9093,-3.9154,-3.9175,-3.9267,-3.9291,-3.9396,-3.9322,-3.9357,-3.9445,-3.9474,-3.9604,-3.9457,-3.9594,-3.9599,-3.9579,-3.9864,-3.9909,-4.013,-3.977,-3.9775,-3.9779,0,-3.8799,-3.888,-3.9096,-3.916,-3.9203,-3.9303,-3.9397,-3.9484,-3.9553,-3.9562,-3.9627,-3.9605,-3.9736,-3.9633,-3.9814,-3.9715,-3.977,-3.9793,-3.9801,-3.9816,-3.9702,-3.9889,-4.02,-4.0234,-3.9827,-3.9823,-3.9819,0,-3.8991,-3.9154,-3.9305,-3.9345,-3.9422,-3.9494,-3.9529,-3.9591,-3.9654,-3.9735,-3.9776,-3.9873,-3.9926,-4.0002,-4.0008,-3.9932,-4.0191,-4.0089,-4.0204,-4.0204,-4.0263,-4.026,-4.0589,-4.0295,-4.0294,-4.0294,-4.0293,0,-3.9247,-3.9382,-3.9393,-3.9486,-3.9636,-3.9628,-3.9778,-3.9807,-3.9862,-3.9962,-3.9926,-4.002,-4.002,-4.0117,-4.0122,-4.0272,-4.0296,-4.0309,-4.0309,-4.0313,-4.0312,-4.0351,-4.0337,-4.0303,-4.0301,-4.0299,-4.0297,0,-3.9488,-3.9501,-3.9662,-3.9722,-3.974,-3.9848,-3.9899,-3.9989,-4.0006,-4.0132,-4.0161,-4.0189,-4.03,-4.0312,-4.0443,-4.0446,-4.0628,-4.0611,-4.0605,-4.0603,-4.0718,-4.0708,-4.1087,-4.1137,-4.0808,-4.0811,-4.0814,0,-3.9652,-3.9754,-3.9824,-3.9887,-3.9927,-4.0029,-4.0092,-4.0088,-4.0155,-4.0241,-4.0321,-4.0428,-4.0514,-4.0695,-4.0728,-4.0828,-4.0814,-4.094,-4.0829,-4.0831,-4.0819,-4.0814,-4.0825,-4.0962,-4.0966,-4.0969,-4.0971,0,-3.9942,-3.9942,-4.0033,-4.0127,-4.0203,-4.0277,-4.0346,-4.04,-4.0405,-4.0483,-4.0596,-4.0662,-4.0795,-4.0903,-4.1001,-4.1039,-4.1008,-4.1005,-4.1038,-4.1044,-4.1038,-4.1045,-4.0666,-4.0997,-4.0995,-4.0993,-4.0991,-4.099,-4.0151,-4.024,-4.0303,-4.0406,-4.0457,-4.0523,-4.061,-4.0637,-4.0731,-4.0837,-4.083,-4.0955,-4.1021,-4.115,-4.1195,-4.1294,-4.1253,-4.1299,-4.1311,-4.1323,-4.1336,-4.102,-4.1312,-4.1311,-4.131,-4.131,-4.1309,0,-4.044,-4.0478,-4.0573,-4.067,-4.0752,-4.0711,-4.0786,-4.0857,-4.0968,-4.1031,-4.1116,-4.1247,-4.1352,-4.1392,-4.1495,-4.1566,-4.1555,-4.1594,-4.159,-4.16,-4.1366,-4.1329,-4.1602,-4.1602,-4.1602,-4.1602,-4.1602,-4.1601,-4.0601,-4.075,-4.0758,-4.0933,-4.097,-4.1091,-4.1138,-4.1199,-4.1249,-4.1396,-4.1482,-4.1507,-4.1563,-4.1669,-4.1764,-4.1773,-4.1814,-4.186,-4.1863,-4.1645,-4.1616,-4.1588,-4.1553,-4.1868,-4.1868,-4.2089,-4.2091,-4.2092]},{"header":{"parameterUnit":"m.s-1","parameterCategory":1,"la1":30.2991,"la2":30.254,"lo1":-89.0895,"lo2":-89.0444,"dy":0.0017,"dx":0.0017,"nx":28,"ny":28,"refTime":"2023-10-02T03:00:00:Z","depth":0,"parameterNumber":3,"parameterNumberName":"V-component_of_WINDS"},"data":[0,0,0,0,0,0,0,0,0,0,0,0,0,0,0,0,0,0,0,0,0,0,0,0,0,0,0,0,0,0,0,0,0,0,0,0,0,0,0,0,0,0,0,0,0,0,0,0,0,0,0,0,0,0,0,0,0,0,-2.1927,-2.1926,0,-2.1815,-2.1814,-2.1813,-2.1737,-2.1737,-2.1736,-2.1736,-2.1617,-2.1614,-2.1611,0,0,0,0,0,0,0,0,0,0,0,0,0,-2.2069,-2.2067,-2.1927,-2.1926,-2.1924,-2.1815,-2.1814,-2.1812,-2.1738,-2.1737,-2.1736,-2.1736,-2.1618,-2.1614,-2.1611,0,0,0,0,0,0,0,0,0,0,0,0,0,-2.1987,-2.2066,-2.1927,-2.1874,-2.1868,-2.1816,-2.1814,-2.1812,-2.1738,-2.1737,-2.1736,-2.1735,-2.1619,-2.1615,-2.1611,-2.1601,0,0,-2.1598,-2.1597,0,0,0,0,0,0,0,0,-2.1992,-2.1982,-2.1883,-2.1878,-2.1871,-2.179,-2.182,-2.1741,-2.1738,-2.1787,-2.1736,-2.1735,-2.1675,-2.1666,-2.1646,-2.1596,-2.1591,-2.1598,-2.1596,-2.1594,-2.1593,0,0,0,0,0,0,0,-2.1998,-2.1987,-2.1883,-2.1882,-2.1874,-2.1853,-2.1841,-2.1805,-2.1736,-2.1783,-2.1777,-2.1765,-2.1671,-2.1651,-2.1643,-2.1589,-2.1598,-2.1595,-2.1592,-2.1591,-2.152,-2.1521,0,0,0,0,0,0,-2.2013,-2.1992,-2.1886,-2.1879,-2.1931,-2.1851,-2.1838,-2.1816,-2.1737,-2.1724,-2.1766,-2.1762,-2.1658,-2.1648,-2.1639,-2.1619,-2.1594,-2.159,-2.1588,-2.152,-2.152,-2.1521,0,0,0,0,0,0,-2.2016,-2.2004,-2.1891,-2.1934,-2.1918,-2.185,-2.1827,-2.1815,-2.1794,-2.1724,-2.1711,-2.1758,-2.1657,-2.1644,-2.161,-2.1614,-2.1588,-2.1585,-2.1519,-2.152,-2.152,-2.1583,0,0,0,0,0,0,-2.202,-2.2006,-2.2003,-2.1935,-2.1916,-2.1867,-2.1827,-2.1813,-2.1788,-2.1782,-2.1713,-2.1701,-2.1655,-2.1617,-2.1606,-2.1608,-2.1581,-2.1518,-2.1519,-2.152,-2.158,-2.1586,-2.1591,0,0,0,0,0,-2.2026,-2.2025,-2.2003,-2.1991,-2.1912,-2.1867,-2.1856,-2.1805,-2.1789,-2.1784,-2.1738,-2.1703,-2.1616,-2.1614,-2.1602,-2.1602,-2.1518,-2.1519,-2.152,-2.1578,-2.1585,-2.1591,0,0,0,0,0,0,-2.2095,-2.2015,-2.199,-2.1968,-2.1925,-2.1855,-2.1848,-2.1815,-2.1775,-2.177,-2.1707,-2.1692,-2.1664,-2.163,-2.1629,-2.1587,-2.1562,-2.1561,-2.1611,-2.1616,-2.1622,-2.163,-2.1578,0,0,0,0,0,-2.2108,-2.208,-2.2011,-2.1998,-2.1978,-2.1917,-2.1895,-2.186,-2.1812,-2.1793,-2.1745,-2.1699,-2.166,-2.1637,-2.1598,-2.1575,-2.1557,-2.1569,-2.1574,-2.1579,-2.1578,-2.156,-2.1564,-2.1525,-2.1525,-2.1525,0,0,-2.2133,-2.2086,-2.2073,-2.201,-2.1973,-2.1943,-2.1902,-2.1873,-2.1849,-2.1788,-2.1753,-2.1716,-2.166,-2.1631,-2.1616,-2.1601,-2.1585,-2.1581,-2.1585,-2.1581,-2.1562,-2.1566,-2.1569,-2.1526,-2.1526,-2.1525,0,0,-2.2165,-2.2128,-2.2111,-2.2075,-2.2019,-2.1978,-2.1974,-2.1908,-2.1881,-2.1845,-2.1798,-2.1768,-2.1704,-2.1665,-2.1637,-2.1651,-2.1616,-2.164,-2.1667,-2.165,-2.1653,-2.1655,-2.1658,-2.166,-2.164,-2.164,-2.164,0,-2.2204,-2.2159,-2.2107,-2.208,-2.2052,-2.1996,-2.1977,-2.1944,-2.1877,-2.1858,-2.1844,-2.1761,-2.1719,-2.1679,-2.1682,-2.1662,-2.1653,-2.1647,-2.1657,-2.1659,-2.166,-2.1662,-2.1663,-2.1643,-2.1643,-2.1642,-2.1642,0,-2.2208,-2.2178,-2.2171,-2.2109,-2.2081,-2.2058,-2.1999,-2.1977,-2.1943,-2.1902,-2.1864,-2.1812,-2.1761,-2.1748,-2.1715,-2.1702,-2.1695,-2.167,-2.1643,-2.1668,-2.1668,-2.1669,-2.1648,-2.1646,-2.1646,-2.1645,0,0,-2.2281,-2.2189,-2.2187,-2.2157,-2.209,-2.2065,-2.2038,-2.1988,-2.1969,-2.1924,-2.1898,-2.1845,-2.182,-2.1788,-2.175,-2.1735,-2.1746,-2.1711,-2.1709,-2.1717,-2.1725,-2.1743,-2.1745,-2.1723,-2.1722,-2.1722,-2.1729,0,-2.23,-2.2252,-2.2202,-2.217,-2.2139,-2.2085,-2.2061,-2.2016,-2.1977,-2.1943,-2.1899,-2.1861,-2.1833,-2.1813,-2.1796,-2.1749,-2.1746,-2.1747,-2.1695,-2.1694,-2.171,-2.1745,-2.1765,-2.1774,-2.1729,-2.1729,-2.1729,0,-2.2317,-2.2276,-2.2241,-2.2175,-2.216,-2.214,-2.2089,-2.2059,-2.2005,-2.1977,-2.1941,-2.19,-2.1865,-2.1844,-2.1794,-2.1796,-2.1771,-2.1744,-2.1743,-2.1735,-2.1712,-2.1736,-2.1776,-2.1776,-2.1729,-2.1729,-2.1729,0,-2.2371,-2.2307,-2.2277,-2.2253,-2.2176,-2.2162,-2.2129,-2.2075,-2.2047,-2.2002,-2.1982,-2.1934,-2.1906,-2.1868,-2.1813,-2.1803,-2.1768,-2.1743,-2.1742,-2.1743,-2.1736,-2.1737,-2.177,-2.1724,-2.1724,-2.1724,-2.1724,0,-2.2397,-2.2378,-2.2299,-2.2281,-2.2256,-2.2198,-2.2174,-2.2135,-2.2087,-2.2058,-2.2007,-2.198,-2.1911,-2.1874,-2.1831,-2.1795,-2.1783,-2.1758,-2.1746,-2.1762,-2.1765,-2.1744,-2.1741,-2.1724,-2.1724,-2.1724,-2.1724,0,-2.2453,-2.24,-2.2363,-2.2293,-2.2274,-2.2259,-2.2197,-2.2175,-2.2133,-2.2096,-2.2084,-2.2017,-2.1972,-2.1914,-2.185,-2.182,-2.1788,-2.1772,-2.1807,-2.18,-2.1802,-2.1801,-2.1821,-2.1819,-2.1776,-2.1777,-2.1777,0,-2.2473,-2.2456,-2.2384,-2.2361,-2.233,-2.2294,-2.2266,-2.2207,-2.2179,-2.2115,-2.21,-2.2052,-2.2009,-2.1938,-2.1882,-2.1832,-2.1813,-2.1823,-2.1805,-2.182,-2.181,-2.1811,-2.1808,-2.1827,-2.1828,-2.1829,-2.1829,0,-2.2512,-2.2486,-2.2449,-2.2401,-2.2369,-2.2328,-2.2284,-2.2268,-2.22,-2.217,-2.2124,-2.2091,-2.2025,-2.1976,-2.1918,-2.1881,-2.1842,-2.1835,-2.1832,-2.1847,-2.1867,-2.1854,-2.1817,-2.1835,-2.1834,-2.1834,-2.1834,-2.1834,-2.2549,-2.253,-2.2476,-2.2435,-2.2396,-2.2356,-2.2332,-2.2286,-2.2247,-2.219,-2.2157,-2.2111,-2.2054,-2.1973,-2.1937,-2.1898,-2.1884,-2.188,-2.1878,-2.1878,-2.1882,-2.1875,-2.1887,-2.1887,-2.1887,-2.1887,-2.1886,0,-2.2584,-2.2546,-2.2508,-2.245,-2.2416,-2.2385,-2.2334,-2.2308,-2.2269,-2.222,-2.2179,-2.2124,-2.2075,-2.2015,-2.1962,-2.1942,-2.1922,-2.1929,-2.1929,-2.1921,-2.1899,-2.1906,-2.1946,-2.1946,-2.1946,-2.1946,-2.1946,-2.1946,-2.2598,-2.2565,-2.2532,-2.2478,-2.2439,-2.2395,-2.2368,-2.233,-2.2291,-2.2232,-2.2192,-2.2154,-2.2099,-2.2041,-2.1993,-2.1977,-2.1958,-2.197,-2.1948,-2.1928,-2.1923,-2.1918,-2.1924,-2.1967,-2.1967,-2.1973,-2.1973,-2.1973]}]]